星链-34101 (STARLINK-34101)

导读 | 豆包AI

STARLINK-34101是美国太空探索技术公司(SpaceX)“星链”星座的卫星,于2025年5月4日由猎鹰9号火箭发射升空,是该批29颗星链卫星中的一员。星链项目旨在构建全球低轨卫星互联网星座,可提供低成本的全球互联网接入服务,此次发射后,活跃星链卫星总数达到6230颗,进一步拓展了星座覆盖规模,持续推进全球卫星网络部署。

基本信息
目录编号:
63812
目录名称:
STARLINK-34101
国际标识:
2025-092J
轨道中心:
EARTH
卫星名称:
星链-34101
卫星全名:
星链-34101 (STARLINK-34101)
卫星状态:
在轨 (已飞行314 天)
发射日期:
2025-05-04 UTC
国别 :
美国 (US)
星等 :
--
轨道信息
数据来源 国际轨道数据
星历时间: 2026-03-14T21:22:38+0800
7小时前
查看轨道信息
半长轴: 6861.142km
偏心率: 0.0001487
轨道倾角: 42.999°
近地点辐角 259.612°
升交点赤经 144.661°
平近点角 100.457°
近地点: 481.984km
远地点: 484.026km
周期: 94.266分钟
每日圈数: 15.275949
详细信息
固有亮度:
5
最大亮度:
2.5
卫星平台:
Starlink V1.0
覆盖范围:
全球
运营商:
太空探索技术公司
运营商所在国:
美国
制造商(研发单位):
太空探索技术公司
制造商所在国:
美国
使用方式:
暂无
卫星简介
Starlink 计划是 SpaceX 推出的全球卫星互联网项目,通过发射低轨道卫星,为全球尤其是偏远地区提供高速、低延迟的互联网服务。自 2019 年起,Starlink 已部署数千颗卫星,旨在缩小全球数字鸿沟,推动互联网普及。该项目还为军事、航空等行业提供通信支持,带来广泛经济效益。
2D轨道图
3D轨道图
轨道高度分析图
轨道倾角分析图
轨道综合分析图
查看轨道综合分析图